date,pm2.5
01/01/2019 00:00,10
01/01/2019 00:15,10
01/01/2019 00:30,10
01/01/2019 00:45,11
01/01/2019 01:00,11
01/01/2019 01:15,11
01/01/2019 01:30,NA
01/01/2019 01:45,18
01/01/2019 02:00,18
01/01/2019 02:15,18
01/01/2019 02:30,18
01/01/2019 02:45,12
01/01/2019 03:00,12
01/01/2019 03:15,12
01/01/2019 03:30,12
01/01/2019 03:45,10
01/01/2019 04:00,10
01/01/2019 04:15,10
01/01/2019 04:30,10
01/01/2019 04:45,12
01/01/2019 05:00,12
01/01/2019 05:15,12
01/01/2019 05:30,12
01/01/2019 05:45,9
01/01/2019 06:00,9
01/01/2019 06:15,9
01/01/2019 06:30,9
01/01/2019 06:45,10
01/01/2019 07:00,10
01/01/2019 07:15,10
01/01/2019 07:30,10
01/01/2019 07:45,9
01/01/2019 08:00,9
01/01/2019 08:15,9
01/01/2019 08:30,9
01/01/2019 08:45,8
01/01/2019 09:00,8
01/01/2019 09:15,8
01/01/2019 09:30,8
01/01/2019 09:45,5
01/01/2019 10:00,5
01/01/2019 10:15,5
01/01/2019 10:30,5
01/01/2019 10:45,4
01/01/2019 11:00,4
01/01/2019 11:15,4
01/01/2019 11:30,4
01/01/2019 11:45,7
01/01/2019 12:00,7
01/01/2019 12:15,7
01/01/2019 12:30,7
01/01/2019 12:45,11
01/01/2019 13:00,11
01/01/2019 13:15,11
01/01/2019 13:30,11
01/01/2019 13:45,11
01/01/2019 14:00,11
01/01/2019 14:15,11
01/01/2019 14:30,11
01/01/2019 14:45,9
01/01/2019 15:00,9
01/01/2019 15:15,9
01/01/2019 15:30,9
01/01/2019 15:45,15
01/01/2019 16:00,15
01/01/2019 16:15,15
01/01/2019 16:30,15
01/01/2019 16:45,17
01/01/2019 17:00,17
01/01/2019 17:15,17
01/01/2019 17:30,17
01/01/2019 17:45,16
01/01/2019 18:00,16
01/01/2019 18:15,16
01/01/2019 18:30,16
01/01/2019 18:45,8
01/01/2019 19:00,8
01/01/2019 19:15,8
01/01/2019 19:30,8
01/01/2019 19:45,7
01/01/2019 20:00,7
01/01/2019 20:15,7
01/01/2019 20:30,7
01/01/2019 20:45,12
01/01/2019 21:00,12
01/01/2019 21:15,12
01/01/2019 21:30,12
01/01/2019 21:45,16
01/01/2019 22:00,16
01/01/2019 22:15,16
01/01/2019 22:30,16
01/01/2019 22:45,11
01/01/2019 23:00,11
01/01/2019 23:15,11
01/01/2019 23:30,11
01/01/2019 23:45,12
02/01/2019 00:00,12
02/01/2019 00:15,12
02/01/2019 00:30,12
02/01/2019 00:45,10
02/01/2019 01:00,10
02/01/2019 01:15,10
02/01/2019 01:30,10
02/01/2019 01:45,10
02/01/2019 02:00,10
02/01/2019 02:15,10
02/01/2019 02:30,10
02/01/2019 02:45,9
02/01/2019 03:00,9
02/01/2019 03:15,9
02/01/2019 03:30,9
02/01/2019 03:45,8
02/01/2019 04:00,8
02/01/2019 04:15,8
02/01/2019 04:30,8
02/01/2019 04:45,9
02/01/2019 05:00,9
02/01/2019 05:15,9
02/01/2019 05:30,9
02/01/2019 05:45,11
02/01/2019 06:00,11
02/01/2019 06:15,11
02/01/2019 06:30,11
02/01/2019 06:45,15
02/01/2019 07:00,15
02/01/2019 07:15,15
02/01/2019 07:30,15
02/01/2019 07:45,14
02/01/2019 08:00,14
02/01/2019 08:15,14
02/01/2019 08:30,14
02/01/2019 08:45,16
02/01/2019 09:00,16
02/01/2019 09:15,16
02/01/2019 09:30,16
02/01/2019 09:45,12
02/01/2019 10:00,12
02/01/2019 10:15,12
02/01/2019 10:30,12
02/01/2019 10:45,14
02/01/2019 11:00,NA
02/01/2019 11:15,14
02/01/2019 11:30,14
02/01/2019 11:45,NA
02/01/2019 12:00,NA
02/01/2019 12:15,NA
02/01/2019 12:30,NA
02/01/2019 12:45,18
02/01/2019 13:00,18
02/01/2019 13:15,NA
02/01/2019 13:30,18
02/01/2019 13:45,7
02/01/2019 14:00,7
02/01/2019 14:15,7
02/01/2019 14:30,7
02/01/2019 14:45,23
02/01/2019 15:00,23
02/01/2019 15:15,23
02/01/2019 15:30,23
02/01/2019 15:45,7
02/01/2019 16:00,7
02/01/2019 16:15,7
02/01/2019 16:30,7
02/01/2019 16:45,15
02/01/2019 17:00,15
02/01/2019 17:15,15
02/01/2019 17:30,15
02/01/2019 17:45,15
02/01/2019 18:00,15
02/01/2019 18:15,15
02/01/2019 18:30,15
02/01/2019 18:45,13
02/01/2019 19:00,13
02/01/2019 19:15,13
02/01/2019 19:30,13
02/01/2019 19:45,19
02/01/2019 20:00,19
02/01/2019 20:15,19
02/01/2019 20:30,19
02/01/2019 20:45,18
02/01/2019 21:00,18
02/01/2019 21:15,18
02/01/2019 21:30,18
02/01/2019 21:45,14
02/01/2019 22:00,14
02/01/2019 22:15,14
02/01/2019 22:30,14
02/01/2019 22:45,12
02/01/2019 23:00,12
02/01/2019 23:15,12
02/01/2019 23:30,12
02/01/2019 23:45,10
03/01/2019 00:00,10
03/01/2019 00:15,10
03/01/2019 00:30,10
03/01/2019 00:45,8
03/01/2019 01:00,8
03/01/2019 01:15,8
03/01/2019 01:30,8
03/01/2019 01:45,10
03/01/2019 02:00,10
03/01/2019 02:15,10
03/01/2019 02:30,10
03/01/2019 02:45,12
03/01/2019 03:00,12
03/01/2019 03:15,12
03/01/2019 03:30,12
03/01/2019 03:45,14
03/01/2019 04:00,14
03/01/2019 04:15,14
03/01/2019 04:30,14
03/01/2019 04:45,13
03/01/2019 05:00,13
03/01/2019 05:15,13
03/01/2019 05:30,13
03/01/2019 05:45,19
03/01/2019 06:00,19
03/01/2019 06:15,19
03/01/2019 06:30,19
03/01/2019 06:45,16
03/01/2019 07:00,16
03/01/2019 07:15,16
03/01/2019 07:30,16
03/01/2019 07:45,22
03/01/2019 08:00,22
03/01/2019 08:15,22
03/01/2019 08:30,22
03/01/2019 08:45,21
03/01/2019 09:00,21
03/01/2019 09:15,21
03/01/2019 09:30,21
03/01/2019 09:45,22
03/01/2019 10:00,22
03/01/2019 10:15,22
03/01/2019 10:30,22
03/01/2019 10:45,20
03/01/2019 11:00,20
03/01/2019 11:15,20
03/01/2019 11:30,20
03/01/2019 11:45,18
03/01/2019 12:00,18
03/01/2019 12:15,18
03/01/2019 12:30,18
03/01/2019 12:45,19
03/01/2019 13:00,19
03/01/2019 13:15,19
03/01/2019 13:30,19
03/01/2019 13:45,16
03/01/2019 14:00,16
03/01/2019 14:15,16
03/01/2019 14:30,16
03/01/2019 14:45,19
03/01/2019 15:00,19
03/01/2019 15:15,19
03/01/2019 15:30,19
03/01/2019 15:45,19
03/01/2019 16:00,19
03/01/2019 16:15,19
03/01/2019 16:30,19
03/01/2019 16:45,25
03/01/2019 17:00,25
03/01/2019 17:15,25
03/01/2019 17:30,25
03/01/2019 17:45,29
03/01/2019 18:00,29
03/01/2019 18:15,29
03/01/2019 18:30,NA
03/01/2019 18:45,37
03/01/2019 19:00,37
03/01/2019 19:15,37
03/01/2019 19:30,37
03/01/2019 19:45,36
03/01/2019 20:00,36
03/01/2019 20:15,36
03/01/2019 20:30,36
03/01/2019 20:45,31
03/01/2019 21:00,31
03/01/2019 21:15,31
03/01/2019 21:30,31
03/01/2019 21:45,34
03/01/2019 22:00,34
03/01/2019 22:15,34
03/01/2019 22:30,34
03/01/2019 22:45,30
03/01/2019 23:00,30
03/01/2019 23:15,30
03/01/2019 23:30,30
03/01/2019 23:45,31
04/01/2019 00:00,31
04/01/2019 00:15,31
04/01/2019 00:30,31
04/01/2019 00:45,27
04/01/2019 01:00,27
04/01/2019 01:15,27
04/01/2019 01:30,27
04/01/2019 01:45,25
04/01/2019 02:00,25
04/01/2019 02:15,25
04/01/2019 02:30,25
04/01/2019 02:45,28
04/01/2019 03:00,28
04/01/2019 03:15,28
04/01/2019 03:30,28
04/01/2019 03:45,26
04/01/2019 04:00,NA
04/01/2019 04:15,26
04/01/2019 04:30,26
04/01/2019 04:45,34
04/01/2019 05:00,34
04/01/2019 05:15,34
04/01/2019 05:30,34
04/01/2019 05:45,26
04/01/2019 06:00,26
04/01/2019 06:15,26
04/01/2019 06:30,26
04/01/2019 06:45,28
04/01/2019 07:00,28
04/01/2019 07:15,28
04/01/2019 07:30,28
04/01/2019 07:45,32
04/01/2019 08:00,32
04/01/2019 08:15,32
04/01/2019 08:30,32
04/01/2019 08:45,29
04/01/2019 09:00,29
04/01/2019 09:15,29
04/01/2019 09:30,29
04/01/2019 09:45,30
04/01/2019 10:00,30
04/01/2019 10:15,30
04/01/2019 10:30,30
04/01/2019 10:45,26
04/01/2019 11:00,26
04/01/2019 11:15,26
04/01/2019 11:30,26
04/01/2019 11:45,30
04/01/2019 12:00,30
04/01/2019 12:15,30
04/01/2019 12:30,30
04/01/2019 12:45,36
04/01/2019 13:00,36
04/01/2019 13:15,36
04/01/2019 13:30,36
04/01/2019 13:45,35
04/01/2019 14:00,35
04/01/2019 14:15,35
04/01/2019 14:30,35
04/01/2019 14:45,35
04/01/2019 15:00,35
04/01/2019 15:15,35
04/01/2019 15:30,35
04/01/2019 15:45,31
04/01/2019 16:00,31
04/01/2019 16:15,31
04/01/2019 16:30,31
04/01/2019 16:45,33
04/01/2019 17:00,33
04/01/2019 17:15,33
04/01/2019 17:30,33
04/01/2019 17:45,32
04/01/2019 18:00,32
04/01/2019 18:15,32
04/01/2019 18:30,32
04/01/2019 18:45,36
04/01/2019 19:00,36
04/01/2019 19:15,36
04/01/2019 19:30,36
04/01/2019 19:45,36
04/01/2019 20:00,36
04/01/2019 20:15,36
04/01/2019 20:30,36
04/01/2019 20:45,33
04/01/2019 21:00,33
04/01/2019 21:15,33
04/01/2019 21:30,33
04/01/2019 21:45,30
04/01/2019 22:00,30
04/01/2019 22:15,30
04/01/2019 22:30,30
04/01/2019 22:45,30
04/01/2019 23:00,30
04/01/2019 23:15,30
04/01/2019 23:30,30
04/01/2019 23:45,29
05/01/2019 00:00,29
05/01/2019 00:15,29
05/01/2019 00:30,29
05/01/2019 00:45,20
05/01/2019 01:00,20
05/01/2019 01:15,20
05/01/2019 01:30,20
05/01/2019 01:45,12
05/01/2019 02:00,12
05/01/2019 02:15,12
05/01/2019 02:30,12
05/01/2019 02:45,11
05/01/2019 03:00,11
05/01/2019 03:15,11
05/01/2019 03:30,11
05/01/2019 03:45,10
05/01/2019 04:00,10
05/01/2019 04:15,10
05/01/2019 04:30,10
05/01/2019 04:45,13
05/01/2019 05:00,13
05/01/2019 05:15,13
05/01/2019 05:30,13
05/01/2019 05:45,9
05/01/2019 06:00,9
05/01/2019 06:15,9
05/01/2019 06:30,9
05/01/2019 06:45,10
05/01/2019 07:00,10
05/01/2019 07:15,10
05/01/2019 07:30,10
05/01/2019 07:45,12
05/01/2019 08:00,12
05/01/2019 08:15,12
05/01/2019 08:30,12
05/01/2019 08:45,11
05/01/2019 09:00,11
05/01/2019 09:15,11
05/01/2019 09:30,11
05/01/2019 09:45,12
05/01/2019 10:00,12
05/01/2019 10:15,12
05/01/2019 10:30,12
05/01/2019 10:45,17
05/01/2019 11:00,17
05/01/2019 11:15,17
05/01/2019 11:30,17
05/01/2019 11:45,19
05/01/2019 12:00,19
05/01/2019 12:15,19
05/01/2019 12:30,19
05/01/2019 12:45,20
05/01/2019 13:00,20
05/01/2019 13:15,20
05/01/2019 13:30,20
05/01/2019 13:45,21
05/01/2019 14:00,21
05/01/2019 14:15,21
05/01/2019 14:30,21
05/01/2019 14:45,14
05/01/2019 15:00,14
05/01/2019 15:15,14
05/01/2019 15:30,14
05/01/2019 15:45,8
05/01/2019 16:00,8
05/01/2019 16:15,8
05/01/2019 16:30,8
05/01/2019 16:45,6
05/01/2019 17:00,6
05/01/2019 17:15,6
05/01/2019 17:30,6
05/01/2019 17:45,17
05/01/2019 18:00,17
05/01/2019 18:15,17
05/01/2019 18:30,17
05/01/2019 18:45,15
05/01/2019 19:00,15
05/01/2019 19:15,15
05/01/2019 19:30,15
05/01/2019 19:45,10
05/01/2019 20:00,10
05/01/2019 20:15,10
05/01/2019 20:30,10
05/01/2019 20:45,10
05/01/2019 21:00,10
05/01/2019 21:15,10
05/01/2019 21:30,10
05/01/2019 21:45,12
05/01/2019 22:00,12
05/01/2019 22:15,12
05/01/2019 22:30,12
05/01/2019 22:45,11
05/01/2019 23:00,11
05/01/2019 23:15,11
05/01/2019 23:30,11
05/01/2019 23:45,12
06/01/2019 00:00,12
06/01/2019 00:15,12
06/01/2019 00:30,12
06/01/2019 00:45,9
06/01/2019 01:00,9
06/01/2019 01:15,9
06/01/2019 01:30,9
06/01/2019 01:45,7
06/01/2019 02:00,7
06/01/2019 02:15,7
06/01/2019 02:30,7
06/01/2019 02:45,12
06/01/2019 03:00,12
06/01/2019 03:15,12
06/01/2019 03:30,12
06/01/2019 03:45,11
06/01/2019 04:00,11
06/01/2019 04:15,11
06/01/2019 04:30,11
06/01/2019 04:45,10
06/01/2019 05:00,10
06/01/2019 05:15,10
06/01/2019 05:30,10
06/01/2019 05:45,13
06/01/2019 06:00,13
06/01/2019 06:15,13
06/01/2019 06:30,13
06/01/2019 06:45,10
06/01/2019 07:00,NA
06/01/2019 07:15,10
06/01/2019 07:30,10
06/01/2019 07:45,13
06/01/2019 08:00,13
06/01/2019 08:15,13
06/01/2019 08:30,13
06/01/2019 08:45,14
06/01/2019 09:00,14
06/01/2019 09:15,14
06/01/2019 09:30,14
06/01/2019 09:45,13
06/01/2019 10:00,13
06/01/2019 10:15,13
06/01/2019 10:30,13
06/01/2019 10:45,17
06/01/2019 11:00,17
06/01/2019 11:15,17
06/01/2019 11:30,17
06/01/2019 11:45,21
06/01/2019 12:00,21
06/01/2019 12:15,21
06/01/2019 12:30,21
06/01/2019 12:45,23
06/01/2019 13:00,23
06/01/2019 13:15,23
06/01/2019 13:30,23
06/01/2019 13:45,16
06/01/2019 14:00,16
06/01/2019 14:15,16
06/01/2019 14:30,16
06/01/2019 14:45,14
06/01/2019 15:00,14
06/01/2019 15:15,14
06/01/2019 15:30,14
06/01/2019 15:45,13
06/01/2019 16:00,13
06/01/2019 16:15,13
06/01/2019 16:30,13
06/01/2019 16:45,15
06/01/2019 17:00,15
06/01/2019 17:15,15
06/01/2019 17:30,15
06/01/2019 17:45,12
06/01/2019 18:00,NA
06/01/2019 18:15,12
06/01/2019 18:30,12
06/01/2019 18:45,10
06/01/2019 19:00,10
06/01/2019 19:15,10
06/01/2019 19:30,10
06/01/2019 19:45,19
06/01/2019 20:00,19
06/01/2019 20:15,19
06/01/2019 20:30,19
06/01/2019 20:45,22
06/01/2019 21:00,22
06/01/2019 21:15,22
06/01/2019 21:30,22
06/01/2019 21:45,22
06/01/2019 22:00,22
06/01/2019 22:15,22
06/01/2019 22:30,22
06/01/2019 22:45,14
06/01/2019 23:00,14
06/01/2019 23:15,14
06/01/2019 23:30,14
06/01/2019 23:45,18
07/01/2019 00:00,18
07/01/2019 00:15,18
07/01/2019 00:30,18
07/01/2019 00:45,23
07/01/2019 01:00,23
07/01/2019 01:15,23
07/01/2019 01:30,23
07/01/2019 01:45,24
07/01/2019 02:00,24
07/01/2019 02:15,24
07/01/2019 02:30,24
07/01/2019 02:45,26
07/01/2019 03:00,26
07/01/2019 03:15,26
07/01/2019 03:30,26
07/01/2019 03:45,15
07/01/2019 04:00,15
07/01/2019 04:15,15
07/01/2019 04:30,15
07/01/2019 04:45,14
07/01/2019 05:00,14
07/01/2019 05:15,14
07/01/2019 05:30,14
07/01/2019 05:45,13
07/01/2019 06:00,13
07/01/2019 06:15,13
07/01/2019 06:30,13
07/01/2019 06:45,13
07/01/2019 07:00,13
07/01/2019 07:15,13
07/01/2019 07:30,13
07/01/2019 07:45,16
07/01/2019 08:00,16
07/01/2019 08:15,16
07/01/2019 08:30,16
07/01/2019 08:45,15
07/01/2019 09:00,15
07/01/2019 09:15,15
07/01/2019 09:30,15
07/01/2019 09:45,10
07/01/2019 10:00,10
07/01/2019 10:15,10
07/01/2019 10:30,10
07/01/2019 10:45,12
07/01/2019 11:00,12
07/01/2019 11:15,12
07/01/2019 11:30,12
07/01/2019 11:45,13
07/01/2019 12:00,13
07/01/2019 12:15,13
07/01/2019 12:30,13
07/01/2019 12:45,8
07/01/2019 13:00,8
07/01/2019 13:15,8
07/01/2019 13:30,8
07/01/2019 13:45,4
07/01/2019 14:00,4
07/01/2019 14:15,4
07/01/2019 14:30,4
07/01/2019 14:45,5
07/01/2019 15:00,5
07/01/2019 15:15,5
07/01/2019 15:30,5
07/01/2019 15:45,5
07/01/2019 16:00,5
07/01/2019 16:15,5
07/01/2019 16:30,5
07/01/2019 16:45,8
07/01/2019 17:00,8
07/01/2019 17:15,8
07/01/2019 17:30,8
07/01/2019 17:45,7
07/01/2019 18:00,7
07/01/2019 18:15,7
07/01/2019 18:30,7
07/01/2019 18:45,8
07/01/2019 19:00,NA
07/01/2019 19:15,8
07/01/2019 19:30,8
07/01/2019 19:45,9
07/01/2019 20:00,9
07/01/2019 20:15,9
07/01/2019 20:30,9
07/01/2019 20:45,7
07/01/2019 21:00,7
07/01/2019 21:15,7
07/01/2019 21:30,7
07/01/2019 21:45,6
07/01/2019 22:00,6
07/01/2019 22:15,6
07/01/2019 22:30,6
07/01/2019 22:45,5
07/01/2019 23:00,5
07/01/2019 23:15,5
07/01/2019 23:30,5
07/01/2019 23:45,5
08/01/2019 00:00,5
08/01/2019 00:15,5
08/01/2019 00:30,5
08/01/2019 00:45,6
08/01/2019 01:00,6
08/01/2019 01:15,6
08/01/2019 01:30,6
08/01/2019 01:45,7
08/01/2019 02:00,7
08/01/2019 02:15,7
08/01/2019 02:30,7
08/01/2019 02:45,7
08/01/2019 03:00,7
08/01/2019 03:15,7
08/01/2019 03:30,7
08/01/2019 03:45,4
08/01/2019 04:00,4
08/01/2019 04:15,4
08/01/2019 04:30,4
08/01/2019 04:45,7
08/01/2019 05:00,7
08/01/2019 05:15,7
08/01/2019 05:30,7
08/01/2019 05:45,6
08/01/2019 06:00,6
08/01/2019 06:15,6
08/01/2019 06:30,6
08/01/2019 06:45,10
08/01/2019 07:00,10
08/01/2019 07:15,10
08/01/2019 07:30,10
08/01/2019 07:45,10
08/01/2019 08:00,10
08/01/2019 08:15,10
08/01/2019 08:30,10
08/01/2019 08:45,9
08/01/2019 09:00,9
08/01/2019 09:15,9
08/01/2019 09:30,9
08/01/2019 09:45,13
08/01/2019 10:00,13
08/01/2019 10:15,13
08/01/2019 10:30,13
08/01/2019 10:45,13
08/01/2019 11:00,13
08/01/2019 11:15,13
08/01/2019 11:30,13
08/01/2019 11:45,12
08/01/2019 12:00,12
08/01/2019 12:15,12
08/01/2019 12:30,12
08/01/2019 12:45,14
08/01/2019 13:00,14
08/01/2019 13:15,14
08/01/2019 13:30,14
08/01/2019 13:45,11
08/01/2019 14:00,11
08/01/2019 14:15,11
08/01/2019 14:30,11
08/01/2019 14:45,13
08/01/2019 15:00,13
08/01/2019 15:15,13
08/01/2019 15:30,13
08/01/2019 15:45,14
08/01/2019 16:00,14
08/01/2019 16:15,14
08/01/2019 16:30,14
08/01/2019 16:45,11
08/01/2019 17:00,11
08/01/2019 17:15,11
08/01/2019 17:30,11
08/01/2019 17:45,13
08/01/2019 18:00,13
08/01/2019 18:15,13
08/01/2019 18:30,13
08/01/2019 18:45,17
08/01/2019 19:00,17
08/01/2019 19:15,17
08/01/2019 19:30,17
08/01/2019 19:45,11
08/01/2019 20:00,11
08/01/2019 20:15,11
08/01/2019 20:30,11
08/01/2019 20:45,18
08/01/2019 21:00,18
08/01/2019 21:15,18
08/01/2019 21:30,18
08/01/2019 21:45,12
08/01/2019 22:00,12
08/01/2019 22:15,12
08/01/2019 22:30,12
08/01/2019 22:45,12
08/01/2019 23:00,12
08/01/2019 23:15,12
08/01/2019 23:30,12
08/01/2019 23:45,9
09/01/2019 00:00,9
09/01/2019 00:15,9
09/01/2019 00:30,9
09/01/2019 00:45,6
09/01/2019 01:00,6
09/01/2019 01:15,6
09/01/2019 01:30,6
09/01/2019 01:45,6
09/01/2019 02:00,6
09/01/2019 02:15,6
09/01/2019 02:30,6
09/01/2019 02:45,6
09/01/2019 03:00,6
09/01/2019 03:15,6
09/01/2019 03:30,6
09/01/2019 03:45,4
09/01/2019 04:00,4
09/01/2019 04:15,4
09/01/2019 04:30,4
09/01/2019 04:45,4
09/01/2019 05:00,4
09/01/2019 05:15,4
09/01/2019 05:30,4
09/01/2019 05:45,4
09/01/2019 06:00,4
09/01/2019 06:15,4
09/01/2019 06:30,4
09/01/2019 06:45,8
09/01/2019 07:00,8
09/01/2019 07:15,8
09/01/2019 07:30,8
09/01/2019 07:45,8
09/01/2019 08:00,8
09/01/2019 08:15,8
09/01/2019 08:30,8
09/01/2019 08:45,10
09/01/2019 09:00,10
09/01/2019 09:15,10
09/01/2019 09:30,10
09/01/2019 09:45,12
09/01/2019 10:00,12
09/01/2019 10:15,12
09/01/2019 10:30,12
09/01/2019 10:45,8
09/01/2019 11:00,8
09/01/2019 11:15,8
09/01/2019 11:30,8
09/01/2019 11:45,11
09/01/2019 12:00,11
09/01/2019 12:15,11
09/01/2019 12:30,11
09/01/2019 12:45,14
09/01/2019 13:00,14
09/01/2019 13:15,14
09/01/2019 13:30,14
09/01/2019 13:45,8
09/01/2019 14:00,8
09/01/2019 14:15,8
09/01/2019 14:30,8
09/01/2019 14:45,14
09/01/2019 15:00,14
09/01/2019 15:15,14
09/01/2019 15:30,14
09/01/2019 15:45,13
09/01/2019 16:00,13
09/01/2019 16:15,13
09/01/2019 16:30,13
09/01/2019 16:45,13
09/01/2019 17:00,13
09/01/2019 17:15,13
09/01/2019 17:30,13
09/01/2019 17:45,13
09/01/2019 18:00,13
09/01/2019 18:15,13
09/01/2019 18:30,13
09/01/2019 18:45,11
09/01/2019 19:00,11
09/01/2019 19:15,11
09/01/2019 19:30,11
09/01/2019 19:45,8
09/01/2019 20:00,8
09/01/2019 20:15,8
09/01/2019 20:30,8
09/01/2019 20:45,20
09/01/2019 21:00,20
09/01/2019 21:15,20
09/01/2019 21:30,20
09/01/2019 21:45,18
09/01/2019 22:00,18
09/01/2019 22:15,18
09/01/2019 22:30,18
09/01/2019 22:45,14
09/01/2019 23:00,14
09/01/2019 23:15,14
09/01/2019 23:30,14
09/01/2019 23:45,10
10/01/2019 00:00,10
10/01/2019 00:15,10
10/01/2019 00:30,10
10/01/2019 00:45,11
10/01/2019 01:00,11
10/01/2019 01:15,11
10/01/2019 01:30,11
10/01/2019 01:45,11
10/01/2019 02:00,11
10/01/2019 02:15,11
10/01/2019 02:30,11
10/01/2019 02:45,10
10/01/2019 03:00,10
10/01/2019 03:15,10
10/01/2019 03:30,10
10/01/2019 03:45,10
10/01/2019 04:00,10
10/01/2019 04:15,10
10/01/2019 04:30,10
10/01/2019 04:45,8
10/01/2019 05:00,8
10/01/2019 05:15,8
10/01/2019 05:30,8
10/01/2019 05:45,7
10/01/2019 06:00,7
10/01/2019 06:15,7
10/01/2019 06:30,7
10/01/2019 06:45,8
10/01/2019 07:00,8
10/01/2019 07:15,8
10/01/2019 07:30,8
10/01/2019 07:45,13
10/01/2019 08:00,13
10/01/2019 08:15,13
10/01/2019 08:30,13
10/01/2019 08:45,17
10/01/2019 09:00,17
10/01/2019 09:15,17
10/01/2019 09:30,17
10/01/2019 09:45,12
10/01/2019 10:00,12
10/01/2019 10:15,12
10/01/2019 10:30,12
10/01/2019 10:45,11
10/01/2019 11:00,11
10/01/2019 11:15,11
10/01/2019 11:30,11
10/01/2019 11:45,8
10/01/2019 12:00,8
10/01/2019 12:15,8
10/01/2019 12:30,8
10/01/2019 12:45,15
10/01/2019 13:00,15
10/01/2019 13:15,15
10/01/2019 13:30,15
10/01/2019 13:45,9
10/01/2019 14:00,9
10/01/2019 14:15,9
10/01/2019 14:30,9
10/01/2019 14:45,13
10/01/2019 15:00,13
10/01/2019 15:15,13
10/01/2019 15:30,13
10/01/2019 15:45,13
10/01/2019 16:00,13
10/01/2019 16:15,13
10/01/2019 16:30,13
10/01/2019 16:45,19
10/01/2019 17:00,19
10/01/2019 17:15,19
10/01/2019 17:30,19
10/01/2019 17:45,25
10/01/2019 18:00,25
10/01/2019 18:15,25
10/01/2019 18:30,25
10/01/2019 18:45,20
10/01/2019 19:00,20
10/01/2019 19:15,20
10/01/2019 19:30,20
10/01/2019 19:45,17
10/01/2019 20:00,17
10/01/2019 20:15,17
10/01/2019 20:30,17
10/01/2019 20:45,11
10/01/2019 21:00,11
10/01/2019 21:15,11
10/01/2019 21:30,11
10/01/2019 21:45,10
10/01/2019 22:00,10
10/01/2019 22:15,10
10/01/2019 22:30,10
10/01/2019 22:45,7
10/01/2019 23:00,7
10/01/2019 23:15,7
10/01/2019 23:30,7
10/01/2019 23:45,10
11/01/2019 00:00,10
11/01/2019 00:15,10
11/01/2019 00:30,10
11/01/2019 00:45,10
11/01/2019 01:00,10
11/01/2019 01:15,10
11/01/2019 01:30,10
11/01/2019 01:45,9
11/01/2019 02:00,9
11/01/2019 02:15,9
11/01/2019 02:30,9
11/01/2019 02:45,11
11/01/2019 03:00,11
11/01/2019 03:15,11
11/01/2019 03:30,11
11/01/2019 03:45,12
11/01/2019 04:00,12
11/01/2019 04:15,12
11/01/2019 04:30,12
11/01/2019 04:45,9
11/01/2019 05:00,9
11/01/2019 05:15,9
11/01/2019 05:30,9
11/01/2019 05:45,6
11/01/2019 06:00,6
11/01/2019 06:15,6
11/01/2019 06:30,6
11/01/2019 06:45,6
11/01/2019 07:00,6
11/01/2019 07:15,6
11/01/2019 07:30,6
11/01/2019 07:45,8
11/01/2019 08:00,8
11/01/2019 08:15,8
11/01/2019 08:30,8
11/01/2019 08:45,13
11/01/2019 09:00,13
11/01/2019 09:15,13
11/01/2019 09:30,13
11/01/2019 09:45,9
11/01/2019 10:00,9
11/01/2019 10:15,9
11/01/2019 10:30,9
11/01/2019 10:45,9
11/01/2019 11:00,9
11/01/2019 11:15,9
11/01/2019 11:30,9
11/01/2019 11:45,7
11/01/2019 12:00,7
11/01/2019 12:15,7
11/01/2019 12:30,7
11/01/2019 12:45,8
11/01/2019 13:00,8
11/01/2019 13:15,8
11/01/2019 13:30,8
11/01/2019 13:45,5
11/01/2019 14:00,5
11/01/2019 14:15,5
11/01/2019 14:30,5
11/01/2019 14:45,4
11/01/2019 15:00,4
11/01/2019 15:15,4
11/01/2019 15:30,4
11/01/2019 15:45,7
11/01/2019 16:00,7
11/01/2019 16:15,7
11/01/2019 16:30,7
11/01/2019 16:45,13
11/01/2019 17:00,13
11/01/2019 17:15,13
11/01/2019 17:30,13
11/01/2019 17:45,16
11/01/2019 18:00,16
11/01/2019 18:15,16
11/01/2019 18:30,16
11/01/2019 18:45,18
11/01/2019 19:00,18
11/01/2019 19:15,18
11/01/2019 19:30,18
11/01/2019 19:45,24
11/01/2019 20:00,24
11/01/2019 20:15,24
11/01/2019 20:30,24
11/01/2019 20:45,7
11/01/2019 21:00,7
11/01/2019 21:15,7
11/01/2019 21:30,7
11/01/2019 21:45,6
11/01/2019 22:00,6
11/01/2019 22:15,6
11/01/2019 22:30,6
11/01/2019 22:45,5
11/01/2019 23:00,5
11/01/2019 23:15,5
11/01/2019 23:30,5
11/01/2019 23:45,8
12/01/2019 00:00,8
12/01/2019 00:15,8
12/01/2019 00:30,8
12/01/2019 00:45,6
12/01/2019 01:00,6
12/01/2019 01:15,6
12/01/2019 01:30,6
12/01/2019 01:45,4
12/01/2019 02:00,4
12/01/2019 02:15,4
12/01/2019 02:30,4
12/01/2019 02:45,2
12/01/2019 03:00,2
12/01/2019 03:15,2
12/01/2019 03:30,2
12/01/2019 03:45,0
12/01/2019 04:00,0
12/01/2019 04:15,0
12/01/2019 04:30,0
12/01/2019 04:45,1
12/01/2019 05:00,1
12/01/2019 05:15,1
12/01/2019 05:30,1
12/01/2019 05:45,0
12/01/2019 06:00,0
12/01/2019 06:15,0
12/01/2019 06:30,0
12/01/2019 06:45,0
12/01/2019 07:00,0
12/01/2019 07:15,0
12/01/2019 07:30,0
12/01/2019 07:45,1
12/01/2019 08:00,1
12/01/2019 08:15,1
12/01/2019 08:30,1
12/01/2019 08:45,4
12/01/2019 09:00,4
12/01/2019 09:15,NA
12/01/2019 09:30,4
12/01/2019 09:45,4
12/01/2019 10:00,4
12/01/2019 10:15,NA
12/01/2019 10:30,4
12/01/2019 10:45,3
12/01/2019 11:00,3
12/01/2019 11:15,3
12/01/2019 11:30,3
12/01/2019 11:45,5
12/01/2019 12:00,5
12/01/2019 12:15,5
12/01/2019 12:30,5
12/01/2019 12:45,8
12/01/2019 13:00,NA
12/01/2019 13:15,8
12/01/2019 13:30,8
12/01/2019 13:45,6
12/01/2019 14:00,6
12/01/2019 14:15,6
12/01/2019 14:30,6
12/01/2019 14:45,7
12/01/2019 15:00,7
12/01/2019 15:15,7
12/01/2019 15:30,7
12/01/2019 15:45,5
12/01/2019 16:00,5
12/01/2019 16:15,5
12/01/2019 16:30,5
12/01/2019 16:45,3
12/01/2019 17:00,3
12/01/2019 17:15,3
12/01/2019 17:30,3
12/01/2019 17:45,7
12/01/2019 18:00,7
12/01/2019 18:15,7
12/01/2019 18:30,7
12/01/2019 18:45,6
12/01/2019 19:00,6
12/01/2019 19:15,6
12/01/2019 19:30,6
12/01/2019 19:45,10
12/01/2019 20:00,10
12/01/2019 20:15,10
12/01/2019 20:30,10
12/01/2019 20:45,9
12/01/2019 21:00,9
12/01/2019 21:15,9
12/01/2019 21:30,9
12/01/2019 21:45,13
12/01/2019 22:00,13
12/01/2019 22:15,13
12/01/2019 22:30,13
12/01/2019 22:45,10
12/01/2019 23:00,10
12/01/2019 23:15,10
12/01/2019 23:30,10
12/01/2019 23:45,7
13/01/2019 00:00,7
13/01/2019 00:15,7
13/01/2019 00:30,7
13/01/2019 00:45,6
13/01/2019 01:00,6
13/01/2019 01:15,6
13/01/2019 01:30,6
13/01/2019 01:45,7